Time,TemperatureF,DewpointF,PressureIn,WindDirection,WindDirectionDegrees,WindSpeedMPH,WindSpeedGustMPH,Humidity,HourlyPrecipIn,Conditions,Clouds,dailyrainin,SolarRadiationWatts/m^2,SoftwareType,DateUTC
2013-02-19 00:10:00,18.0,14.0,29.73,WNW,293,0.0,-999.0,83,-99.99,,,0.00,0,weatherlink.com 1.10,2013-02-19 06:10:00,
2013-02-19 00:25:00,18.1,14.0,29.75,WNW,284,0.0,-999.0,83,-99.99,,,0.00,0,weatherlink.com 1.10,2013-02-19 06:25:00,
2013-02-19 00:40:00,17.8,14.0,29.75,WNW,294,0.0,-999.0,83,-99.99,,,0.00,0,weatherlink.com 1.10,2013-02-19 06:40:00,
2013-02-19 00:55:00,17.8,13.0,29.75,WNW,298,0.0,-999.0,82,-99.99,,,0.00,0,weatherlink.com 1.10,2013-02-19 06:55:00,
2013-02-19 01:10:00,17.7,13.0,29.75,WNW,288,0.0,-999.0,82,-99.99,,,0.00,0,weatherlink.com 1.10,2013-02-19 07:10:00,
2013-02-19 01:25:00,17.7,13.0,29.76,West,279,0.0,-999.0,82,-99.99,,,0.00,0,weatherlink.com 1.10,2013-02-19 07:25:00,
2013-02-19 01:40:00,16.5,12.0,29.77,WNW,290,0.0,-999.0,82,-99.99,,,0.00,0,weatherlink.com 1.10,2013-02-19 07:40:00,
2013-02-19 01:55:00,15.4,10.0,29.78,WNW,284,0.0,-999.0,80,-99.99,,,0.00,0,weatherlink.com 1.10,2013-02-19 07:55:00,
2013-02-19 02:10:00,15.6,11.0,29.79,WNW,295,0.0,-999.0,80,-99.99,,,0.00,0,weatherlink.com 1.10,2013-02-19 08:10:00,
2013-02-19 02:25:00,16.1,11.0,29.79,WNW,294,0.0,-999.0,81,-99.99,,,0.00,0,weatherlink.com 1.10,2013-02-19 08:25:00,
2013-02-19 02:40:00,16.1,12.0,29.79,WNW,302,0.0,-999.0,82,-99.99,,,0.00,0,weatherlink.com 1.10,2013-02-19 08:40:00,
2013-02-19 02:55:00,14.6,10.0,29.80,WNW,282,0.0,-999.0,80,-99.99,,,0.00,0,weatherlink.com 1.10,2013-02-19 08:55:00,
2013-02-19 03:10:00,14.3,9.0,29.80,WNW,287,0.0,-999.0,79,-99.99,,,0.00,0,weatherlink.com 1.10,2013-02-19 09:10:00,
2013-02-19 03:25:00,14.4,9.0,29.81,WNW,284,0.0,-999.0,79,-99.99,,,0.00,0,weatherlink.com 1.10,2013-02-19 09:25:00,
2013-02-19 03:40:00,14.4,9.0,29.81,WNW,292,23.0,-999.0,79,-99.99,,,0.00,0,weatherlink.com 1.10,2013-02-19 09:40:00,
2013-02-19 03:55:00,13.8,8.0,29.81,WNW,287,23.0,-999.0,79,-99.99,,,0.00,0,weatherlink.com 1.10,2013-02-19 09:55:00,
2013-02-19 04:10:00,12.6,7.0,29.82,WNW,290,35.0,-999.0,78,-99.99,,,0.00,0,weatherlink.com 1.10,2013-02-19 10:10:00,
2013-02-19 04:25:00,12.1,6.0,29.83,WNW,293,22.0,-999.0,77,-99.99,,,0.00,0,weatherlink.com 1.10,2013-02-19 10:25:00,
2013-02-19 04:40:00,12.3,7.0,29.84,WNW,290,20.0,-999.0,78,-99.99,,,0.00,0,weatherlink.com 1.10,2013-02-19 10:40:00,
2013-02-19 04:55:00,12.6,7.0,29.84,WNW,294,25.0,-999.0,78,-99.99,,,0.00,0,weatherlink.com 1.10,2013-02-19 10:55:00,
2013-02-19 05:10:00,12.1,7.0,29.84,WNW,290,26.0,-999.0,78,-99.99,,,0.00,0,weatherlink.com 1.10,2013-02-19 11:10:00,
2013-02-19 05:25:00,11.2,5.0,29.86,WNW,288,22.0,-999.0,77,-99.99,,,0.00,0,weatherlink.com 1.10,2013-02-19 11:25:00,
2013-02-19 05:40:00,10.9,5.0,29.87,West,281,25.0,-999.0,77,-99.99,,,0.00,0,weatherlink.com 1.10,2013-02-19 11:40:00,
2013-02-19 05:55:00,10.0,4.0,29.88,WNW,290,25.0,-999.0,76,-99.99,,,0.00,0,weatherlink.com 1.10,2013-02-19 11:55:00,
2013-02-19 06:11:00,9.9,4.0,29.88,WNW,290,24.0,-999.0,76,-99.99,,,0.00,0,weatherlink.com 1.10,2013-02-19 12:11:00,
2013-02-19 06:26:00,9.9,4.0,29.89,WNW,296,21.0,-999.0,77,-99.99,,,0.00,0,weatherlink.com 1.10,2013-02-19 12:26:00,
2013-02-19 06:41:00,9.9,4.0,29.90,WNW,293,23.0,-999.0,77,-99.99,,,0.00,0,weatherlink.com 1.10,2013-02-19 12:41:00,
2013-02-19 06:56:00,9.5,4.0,29.90,WNW,284,24.0,-999.0,77,-99.99,,,0.00,5,weatherlink.com 1.10,2013-02-19 12:56:00,
2013-02-19 07:11:00,9.3,3.0,29.91,WNW,296,26.0,-999.0,76,-99.99,,,0.00,21,weatherlink.com 1.10,2013-02-19 13:11:00,
2013-02-19 07:26:00,9.3,3.0,29.92,WNW,299,23.0,-999.0,76,-99.99,,,0.00,33,weatherlink.com 1.10,2013-02-19 13:26:00,
2013-02-19 07:41:00,9.7,4.0,29.93,West,281,25.0,-999.0,77,-99.99,,,0.00,33,weatherlink.com 1.10,2013-02-19 13:41:00,
2013-02-19 07:56:00,8.8,3.0,29.94,WNW,300,20.0,-999.0,77,-99.99,,,0.00,39,weatherlink.com 1.10,2013-02-19 13:56:00,
2013-02-19 08:11:00,8.6,3.0,29.95,WNW,288,22.0,-999.0,77,-99.99,,,0.00,62,weatherlink.com 1.10,2013-02-19 14:11:00,
2013-02-19 08:26:00,8.4,2.0,29.96,WNW,297,23.0,-999.0,75,-99.99,,,0.00,60,weatherlink.com 1.10,2013-02-19 14:26:00,
2013-02-19 08:41:00,8.4,2.0,29.97,WNW,290,25.0,-999.0,76,-99.99,,,0.00,98,weatherlink.com 1.10,2013-02-19 14:41:00,
2013-02-19 08:56:00,8.6,2.0,29.98,WNW,300,25.0,-999.0,75,-99.99,,,0.00,209,weatherlink.com 1.10,2013-02-19 14:56:00,
2013-02-19 09:11:00,8.4,2.0,29.99,WNW,288,24.0,-999.0,75,-99.99,,,0.00,142,weatherlink.com 1.10,2013-02-19 15:11:00,
2013-02-19 09:27:00,8.8,2.0,30.00,WNW,301,24.0,-999.0,74,-99.99,,,0.00,190,weatherlink.com 1.10,2013-02-19 15:27:00,
2013-02-19 09:42:00,9.2,3.0,30.00,WNW,298,26.0,-999.0,74,-99.99,,,0.00,179,weatherlink.com 1.10,2013-02-19 15:42:00,
2013-02-19 09:57:00,9.3,3.0,30.02,WNW,283,23.0,-999.0,75,-99.99,,,0.00,197,weatherlink.com 1.10,2013-02-19 15:57:00,
2013-02-19 10:12:00,9.3,3.0,30.02,WNW,286,24.0,-999.0,75,-99.99,,,0.00,288,weatherlink.com 1.10,2013-02-19 16:12:00,
2013-02-19 10:27:00,10.0,3.0,30.02,WNW,301,24.0,-999.0,74,-99.99,,,0.00,225,weatherlink.com 1.10,2013-02-19 16:27:00,
2013-02-19 10:42:00,10.9,4.0,30.03,WNW,291,23.0,-999.0,74,-99.99,,,0.00,193,weatherlink.com 1.10,2013-02-19 16:42:00,
2013-02-19 10:57:00,11.1,4.0,30.03,WNW,293,20.0,-999.0,74,-99.99,,,0.00,162,weatherlink.com 1.10,2013-02-19 16:57:00,
2013-02-19 11:12:00,11.1,4.0,30.03,WNW,291,25.0,-999.0,74,-99.99,,,0.00,214,weatherlink.com 1.10,2013-02-19 17:12:00,
2013-02-19 11:27:00,11.7,5.0,30.04,WNW,288,25.0,-999.0,75,-99.99,,,0.00,348,weatherlink.com 1.10,2013-02-19 17:27:00,
2013-02-19 11:42:00,12.3,6.0,30.05,WNW,290,26.0,-999.0,74,-99.99,,,0.00,316,weatherlink.com 1.10,2013-02-19 17:42:00,
2013-02-19 11:57:00,12.8,6.0,30.04,WNW,301,24.0,-999.0,74,-99.99,,,0.00,253,weatherlink.com 1.10,2013-02-19 17:57:00,
2013-02-19 12:12:00,13.8,7.0,30.05,West,281,25.0,-999.0,75,-99.99,,,0.00,227,weatherlink.com 1.10,2013-02-19 18:12:00,
2013-02-19 12:27:00,14.8,8.0,30.05,WNW,298,30.0,-999.0,74,-99.99,,,0.00,438,weatherlink.com 1.10,2013-02-19 18:27:00,
2013-02-19 12:42:00,15.1,8.0,30.05,WNW,294,22.0,-999.0,74,-99.99,,,0.00,229,weatherlink.com 1.10,2013-02-19 18:42:00,
2013-02-19 12:58:00,15.2,9.0,30.05,WNW,287,26.0,-999.0,75,-99.99,,,0.00,214,weatherlink.com 1.10,2013-02-19 18:58:00,
2013-02-19 13:13:00,15.4,9.0,30.05,WNW,288,24.0,-999.0,74,-99.99,,,0.00,223,weatherlink.com 1.10,2013-02-19 19:13:00,
2013-02-19 13:28:00,16.9,10.0,30.05,WNW,286,26.0,-999.0,74,-99.99,,,0.00,355,weatherlink.com 1.10,2013-02-19 19:28:00,
2013-02-19 13:43:00,17.5,10.0,30.05,WNW,293,27.0,-999.0,73,-99.99,,,0.00,397,weatherlink.com 1.10,2013-02-19 19:43:00,
2013-02-19 13:58:00,18.0,11.0,30.05,WNW,290,30.0,-999.0,73,-99.99,,,0.00,346,weatherlink.com 1.10,2013-02-19 19:58:00,
2013-02-19 14:13:00,18.1,11.0,30.05,WNW,296,25.0,-999.0,72,-99.99,,,0.00,345,weatherlink.com 1.10,2013-02-19 20:13:00,
2013-02-19 14:28:00,18.6,11.0,30.05,NW,304,24.0,-999.0,72,-99.99,,,0.00,345,weatherlink.com 1.10,2013-02-19 20:28:00,
2013-02-19 14:43:00,18.6,11.0,30.06,West,278,28.0,-999.0,71,-99.99,,,0.00,366,weatherlink.com 1.10,2013-02-19 20:43:00,
2013-02-19 14:58:00,19.1,11.0,30.06,WNW,300,23.0,-999.0,71,-99.99,,,0.00,399,weatherlink.com 1.10,2013-02-19 20:58:00,
2013-02-19 15:13:00,19.5,11.0,30.07,WNW,292,36.0,-999.0,70,-99.99,,,0.00,408,weatherlink.com 1.10,2013-02-19 21:13:00,
2013-02-19 15:28:00,20.0,11.0,30.07,WNW,298,31.0,-999.0,69,-99.99,,,0.00,410,weatherlink.com 1.10,2013-02-19 21:28:00,
2013-02-19 15:43:00,20.5,12.0,30.08,West,280,22.0,-999.0,69,-99.99,,,0.00,394,weatherlink.com 1.10,2013-02-19 21:43:00,
2013-02-19 15:58:00,20.3,11.0,30.08,WNW,296,29.0,-999.0,68,-99.99,,,0.00,357,weatherlink.com 1.10,2013-02-19 21:58:00,
2013-02-19 16:14:00,20.2,11.0,30.08,WNW,294,21.0,-999.0,68,-99.99,,,0.00,311,weatherlink.com 1.10,2013-02-19 22:14:00,
2013-02-19 16:29:00,20.2,11.0,30.10,WNW,290,19.0,-999.0,68,-99.99,,,0.00,97,weatherlink.com 1.10,2013-02-19 22:29:00,
2013-02-19 16:44:00,19.9,11.0,30.10,WNW,297,23.0,-999.0,67,-99.99,,,0.00,100,weatherlink.com 1.10,2013-02-19 22:44:00,
2013-02-19 16:59:00,19.4,10.0,30.11,WNW,284,22.0,-999.0,66,-99.99,,,0.00,51,weatherlink.com 1.10,2013-02-19 22:59:00,
2013-02-19 17:14:00,19.2,10.0,30.12,WNW,290,15.0,-999.0,67,-99.99,,,0.00,53,weatherlink.com 1.10,2013-02-19 23:14:00,
2013-02-19 17:29:00,18.6,9.0,30.12,WNW,298,20.0,-999.0,67,-99.99,,,0.00,12,weatherlink.com 1.10,2013-02-19 23:29:00,
2013-02-19 17:44:00,18.3,9.0,30.13,WNW,290,22.0,-999.0,67,-99.99,,,0.00,5,weatherlink.com 1.10,2013-02-19 23:44:00,
2013-02-19 17:59:00,18.1,9.0,30.13,WNW,301,22.0,-999.0,67,-99.99,,,0.00,0,weatherlink.com 1.10,2013-02-19 23:59:00,
2013-02-19 18:14:00,17.7,9.0,30.14,WNW,285,13.0,-999.0,68,-99.99,,,0.00,0,weatherlink.com 1.10,2013-02-20 00:14:00,
2013-02-19 18:29:00,17.5,9.0,30.15,WNW,293,27.0,-999.0,68,-99.99,,,0.00,0,weatherlink.com 1.10,2013-02-20 00:29:00,
2013-02-19 18:44:00,17.2,8.0,30.15,WNW,290,14.0,-999.0,68,-99.99,,,0.00,0,weatherlink.com 1.10,2013-02-20 00:44:00,
2013-02-19 18:59:00,17.0,8.0,30.16,WNW,286,22.0,-999.0,68,-99.99,,,0.00,0,weatherlink.com 1.10,2013-02-20 00:59:00,
2013-02-19 19:14:00,16.9,8.0,30.17,WNW,300,20.0,-999.0,67,-99.99,,,0.00,0,weatherlink.com 1.10,2013-02-20 01:14:00,
2013-02-19 19:29:00,16.7,7.0,30.18,WNW,296,20.0,-999.0,67,-99.99,,,0.00,0,weatherlink.com 1.10,2013-02-20 01:29:00,
2013-02-19 19:45:00,16.4,7.0,30.18,NW,309,23.0,-999.0,67,-99.99,,,0.00,0,weatherlink.com 1.10,2013-02-20 01:45:00,
2013-02-19 20:00:00,16.1,7.0,30.19,WNW,292,18.0,-999.0,67,-99.99,,,0.00,0,weatherlink.com 1.10,2013-02-20 02:00:00,
2013-02-19 20:15:00,15.9,7.0,30.20,NW,307,27.0,-999.0,67,-99.99,,,0.00,0,weatherlink.com 1.10,2013-02-20 02:15:00,
2013-02-19 20:30:00,15.6,6.0,30.20,WNW,300,18.0,-999.0,67,-99.99,,,0.00,0,weatherlink.com 1.10,2013-02-20 02:30:00,
2013-02-19 20:45:00,15.2,6.0,30.22,WNW,301,13.0,-999.0,67,-99.99,,,0.00,0,weatherlink.com 1.10,2013-02-20 02:45:00,
2013-02-19 21:00:00,14.9,6.0,30.22,WNW,303,22.0,-999.0,68,-99.99,,,0.00,0,weatherlink.com 1.10,2013-02-20 03:00:00,
2013-02-19 21:15:00,14.6,6.0,30.22,NW,310,18.0,-999.0,69,-99.99,,,0.00,0,weatherlink.com 1.10,2013-02-20 03:15:00,
2013-02-19 21:30:00,14.1,6.0,30.23,NW,305,18.0,-999.0,69,-99.99,,,0.00,0,weatherlink.com 1.10,2013-02-20 03:30:00,
2013-02-19 21:45:00,13.6,6.0,30.24,NNW,337,17.0,-999.0,70,-99.99,,,0.00,0,weatherlink.com 1.10,2013-02-20 03:45:00,
2013-02-19 22:00:00,12.8,5.0,30.25,NW,309,17.0,-999.0,71,-99.99,,,0.00,0,weatherlink.com 1.10,2013-02-20 04:00:00,
2013-02-19 22:15:00,11.4,3.0,30.25,NW,309,20.0,-999.0,70,-99.99,,,0.00,0,weatherlink.com 1.10,2013-02-20 04:15:00,
2013-02-19 22:30:00,10.5,3.0,30.27,NW,309,23.0,-999.0,70,-99.99,,,0.00,0,weatherlink.com 1.10,2013-02-20 04:30:00,
2013-02-19 22:45:00,9.9,2.0,30.27,NW,309,16.0,-999.0,71,-99.99,,,0.00,0,weatherlink.com 1.10,2013-02-20 04:45:00,
2013-02-19 23:00:00,9.3,2.0,30.28,NW,307,11.0,-999.0,71,-99.99,,,0.00,0,weatherlink.com 1.10,2013-02-20 05:00:00,
2013-02-19 23:16:00,8.8,2.0,30.28,NW,306,14.0,-999.0,72,-99.99,,,0.00,0,weatherlink.com 1.10,2013-02-20 05:16:00,
2013-02-19 23:31:00,8.6,1.0,30.29,NW,317,15.0,-999.0,70,-99.99,,,0.00,0,weatherlink.com 1.10,2013-02-20 05:31:00,
2013-02-19 23:46:00,8.3,1.0,30.30,NW,306,12.0,-999.0,71,-99.99,,,0.00,0,weatherlink.com 1.10,2013-02-20 05:46:00,